Baraboo, WI

4:08 PM CDT on May 29, 2017 (GMT -0500)
Baraboo Wisconsin Dells

Weather History for KDLL - June, 2013

Change the Weather History Date:

Wednesday, June 26, 2013

  Actual Average Record
Temperature  
Mean Temperature 74 °F -  
Max Temperature 82 °F 81 °F 92 °F (1980)
Min Temperature 66 °F 56 °F 43 °F (1974)
Cooling Degree Days 9    
Growing Degree Days 24 (Base 50)    
Moisture  
Dew Point 67 °F    
Average Humidity 79    
Maximum Humidity 94    
Minimum Humidity 57    
Precipitation  
Precipitation 0.21 in - - ()
Sea Level Pressure  
Sea Level Pressure 29.76 in    
Wind  
Wind Speed 5 mph (South)    
Max Wind Speed 15 mph    
Max Gust Speed 22 mph    
Visibility 8 miles    
Events Fog , Rain , Thunderstorm    
Averages and records for this station are not official NWS values.
T = Trace of Precipitation, MM = Missing Value Source: NWS Daily Summary

Daily Weather History Graph

Daily Weather History Graph

Search for Another Location

Airport or City:

Trip Planner

Search our weather history database for the weather conditions in past years. The results will help you decide how hot, cold, wet, or windy it might be!

Date:

Astronomy

Jun. 26, 2013 Rise Set
Actual Time 5:19 AM CDT 8:44 PM CDT
Civil Twilight 4:43 AM CDT 9:20 PM CDT
Nautical Twilight 3:57 AM CDT 10:06 PM CDT
Astronomical Twilight 2:58 AM CDT 11:05 PM CDT
Moon 10:58 PM CDT (6/26) 9:18 AM CDT (6/26)
Length of Visible Light 16h 36m
Length of Day
15h 24m
Waning Gibbous, 85% of the Moon is Illuminated
Jun 26
Waning Gibbous
Jun 29
Last Quarter
Jul 8
New
Jul 15
First Quarter
Jul 22
Full

Hourly Weather History & Observations

Time (CDT) Temp. Heat Index Dew Point Humidity Pressure Visibility Wind Dir Wind Speed Gust Speed Precip Events Conditions
12:15 AM 72.7 °F - 70.0 °F 91% 29.79 in 5.0 mi SSE 6.9 mph - N/A   Clear
12:35 AM 71.8 °F - 69.1 °F 91% 29.78 in 4.0 mi SE 3.5 mph - N/A   Clear
12:55 AM 71.4 °F - 68.9 °F 92% 29.78 in 4.0 mi SSE 3.5 mph - N/A   Clear
1:15 AM 71.2 °F - 68.9 °F 92% 29.78 in 3.0 mi SE 4.6 mph - N/A   Scattered Clouds
1:35 AM 72.5 °F - 70.0 °F 92% 29.79 in 4.0 mi SSE 4.6 mph - N/A   Mostly Cloudy
1:55 AM 72.0 °F - 69.8 °F 93% 29.78 in 3.0 mi South 4.6 mph - N/A   Mostly Cloudy
2:15 AM 72.0 °F - 69.6 °F 92% 29.77 in 3.0 mi Calm Calm - N/A   Mostly Cloudy
2:35 AM 71.8 °F - 69.4 °F 92% 29.76 in 4.0 mi SE 3.5 mph - N/A   Scattered Clouds
2:55 AM 71.1 °F - 68.9 °F 93% 29.76 in 2.5 mi East 3.5 mph - N/A   Scattered Clouds
3:15 AM 71.1 °F - 68.9 °F 93% 29.75 in 2.0 mi Calm Calm - N/A   Clear
3:35 AM 70.2 °F - 68.0 °F 93% 29.75 in 0.2 mi NE 3.5 mph - N/A Fog Fog
3:55 AM 70.7 °F - 68.7 °F 93% 29.74 in 1.8 mi ENE 3.5 mph - N/A   Mostly Cloudy
4:15 AM 71.1 °F - 69.3 °F 94% 29.74 in 1.2 mi Calm Calm - N/A   Overcast
4:35 AM 70.7 °F - 68.9 °F 94% 29.73 in 1.2 mi East 3.5 mph - N/A   Mostly Cloudy
4:55 AM 70.9 °F - 69.1 °F 94% 29.74 in 1.5 mi Calm Calm - N/A   Overcast
5:15 AM 68.0 °F - 65.8 °F 93% 29.75 in 3.0 mi SW 15.0 mph 19.6 mph N/A Rain Rain
5:35 AM 68.0 °F - 64.4 °F 88% 29.76 in 2.0 mi East 8.1 mph - 0.20 in Rain , Thunderstorm Heavy Thunderstorms and Rain
5:55 AM 67.3 °F - 64.4 °F 90% 29.74 in 10.0 mi East 6.9 mph - 0.21 in Rain , Thunderstorm Light Thunderstorms and Rain
6:35 AM 68.0 °F - 64.4 °F 88% 29.78 in 10.0 mi South 13.8 mph 19.6 mph N/A Rain , Thunderstorm Light Thunderstorms and Rain
6:55 AM 66.7 °F - 63.0 °F 88% 29.77 in 10.0 mi SSE 6.9 mph 21.9 mph N/A Rain , Thunderstorm Light Thunderstorms and Rain
7:15 AM 67.3 °F - 63.0 °F 86% 29.77 in 10.0 mi SSW 10.4 mph - N/A   Clear
7:35 AM 67.5 °F - 63.3 °F 87% 29.76 in 10.0 mi South 5.8 mph - N/A   Clear
7:55 AM 68.2 °F - 63.0 °F 83% 29.74 in 10.0 mi SSW 6.9 mph - N/A   Clear
8:15 AM 68.2 °F - 63.5 °F 85% 29.77 in 10.0 mi Calm Calm - N/A   Clear
8:35 AM 68.7 °F - 64.2 °F 86% 29.77 in 10.0 mi SSW 3.5 mph - N/A   Clear
8:55 AM 70.2 °F - 62.8 °F 77% 29.76 in 10.0 mi SE 5.8 mph - N/A   Clear
9:15 AM 69.8 °F - 62.8 °F 78% 29.75 in 10.0 mi South 6.9 mph - N/A   Clear
9:55 AM 72.7 °F - 63.5 °F 73% 29.75 in 10.0 mi Calm Calm - N/A   Clear
10:15 AM 73.6 °F - 64.0 °F 72% 29.76 in 10.0 mi Calm Calm - N/A   Clear
10:35 AM 73.4 °F - 63.5 °F 71% 29.76 in 10.0 mi Calm Calm - N/A   Clear
10:55 AM 73.9 °F - 63.9 °F 71% 29.76 in 10.0 mi Calm Calm - N/A   Clear
11:15 AM 74.7 °F - 64.2 °F 70% 29.76 in 10.0 mi SE 6.9 mph - N/A   Clear
11:35 AM 74.7 °F - 65.1 °F 72% 29.76 in 10.0 mi SSE 9.2 mph - N/A   Clear
11:55 AM 74.7 °F - 65.7 °F 73% 29.77 in 10.0 mi SSE 15.0 mph - N/A   Clear
12:15 PM 75.2 °F - 65.5 °F 72% 29.78 in 10.0 mi South 8.1 mph - N/A   Clear
12:35 PM 76.1 °F - 64.6 °F 67% 29.78 in 10.0 mi South 8.1 mph - N/A   Clear
12:55 PM 77.0 °F - 65.5 °F 67% 29.78 in 10.0 mi SSW 6.9 mph - N/A   Scattered Clouds
1:15 PM 78.3 °F - 66.0 °F 66% 29.78 in 10.0 mi SSW 6.9 mph - N/A   Scattered Clouds
1:35 PM 78.8 °F - 66.0 °F 65% 29.78 in 10.0 mi SSW 8.1 mph - N/A   Mostly Cloudy
1:55 PM 78.3 °F - 65.3 °F 64% 29.77 in 10.0 mi South 9.2 mph - N/A   Mostly Cloudy
2:15 PM 79.9 °F - 66.4 °F 63% 29.76 in 10.0 mi South 9.2 mph - N/A   Mostly Cloudy
2:35 PM 79.0 °F - 65.7 °F 64% 29.77 in 10.0 mi WSW 5.8 mph - N/A   Mostly Cloudy
2:55 PM 80.2 °F 82.3 °F 66.0 °F 62% 29.77 in 10.0 mi SSW 4.6 mph - N/A   Mostly Cloudy
3:15 PM 81.5 °F 83.9 °F 66.9 °F 61% 29.77 in 10.0 mi SSW 6.9 mph - N/A   Scattered Clouds
3:35 PM 80.6 °F 82.9 °F 66.7 °F 63% 29.77 in 10.0 mi South 8.1 mph - N/A   Scattered Clouds
3:55 PM 81.9 °F 84.6 °F 67.5 °F 62% 29.77 in 10.0 mi SSW 6.9 mph - N/A   Scattered Clouds
4:15 PM 81.5 °F 83.7 °F 66.4 °F 60% 29.77 in 10.0 mi SW 4.6 mph - N/A   Scattered Clouds
4:35 PM 81.0 °F 83.0 °F 65.7 °F 60% 29.77 in 10.0 mi SSW 3.5 mph - N/A   Scattered Clouds
4:55 PM 82.4 °F 84.4 °F 66.0 °F 57% 29.76 in 10.0 mi SSW 4.6 mph - N/A   Mostly Cloudy
5:15 PM 81.9 °F 83.9 °F 65.7 °F 58% 29.75 in 10.0 mi SW 6.9 mph - N/A   Scattered Clouds
5:55 PM 80.1 °F 82.2 °F 66.6 °F 63% 29.73 in 10.0 mi WSW 4.6 mph - N/A   Clear
6:15 PM 80.6 °F 82.7 °F 66.2 °F 61% 29.75 in 10.0 mi West 4.6 mph - N/A   Clear
6:35 PM 80.6 °F 82.9 °F 66.9 °F 63% 29.75 in 10.0 mi West 6.9 mph - N/A   Clear
6:55 PM 78.8 °F - 66.9 °F 67% 29.75 in 10.0 mi SW 4.6 mph - N/A   Scattered Clouds
7:15 PM 77.9 °F - 68.0 °F 71% 29.75 in 10.0 mi Calm Calm - N/A   Scattered Clouds
7:35 PM 77.0 °F - 68.5 °F 75% 29.74 in 10.0 mi SSW 3.5 mph - N/A   Clear
7:55 PM 77.0 °F - 67.8 °F 73% 29.73 in 10.0 mi SSW 5.8 mph - N/A   Mostly Cloudy
8:15 PM 76.8 °F - 68.2 °F 75% 29.73 in 10.0 mi SW 6.9 mph - N/A   Scattered Clouds
8:35 PM 75.6 °F - 68.2 °F 78% 29.74 in 10.0 mi SW 3.5 mph - N/A   Clear
8:55 PM 75.2 °F - 68.2 °F 79% 29.75 in 10.0 mi South 3.5 mph - N/A   Clear
9:15 PM 73.9 °F - 68.5 °F 83% 29.76 in 10.0 mi SSW 3.5 mph - N/A   Clear
9:35 PM 73.6 °F - 68.9 °F 85% 29.77 in 10.0 mi Calm Calm - N/A   Clear
9:55 PM 74.1 °F - 68.2 °F 82% 29.77 in 10.0 mi Calm Calm - N/A   Scattered Clouds
10:15 PM 72.3 °F - 68.2 °F 87% 29.77 in 10.0 mi SSE 3.5 mph - N/A   Scattered Clouds
10:35 PM 72.0 °F - 68.2 °F 88% 29.77 in 10.0 mi Calm Calm - N/A   Clear
10:55 PM 72.5 °F - 69.1 °F 89% 29.77 in 10.0 mi Calm Calm - N/A   Mostly Cloudy
11:15 PM 72.0 °F - 68.5 °F 89% 29.77 in 10.0 mi Calm Calm - N/A   Mostly Cloudy
11:35 PM 71.8 °F - 68.4 °F 89% 29.78 in 10.0 mi Calm Calm - N/A   Scattered Clouds
11:55 PM 71.8 °F - 68.4 °F 89% 29.78 in 10.0 mi Calm Calm - N/A   Clear